Location: Orinda
(37.8771°N, 122.1797°W)
Time: 10:18:06
(UTC+00:00)

Cosmos 1606 Rocket - Pass Details

Date: 21 October 2019
Orbit: 602 x 633 km, 82.5° (Epoch: 18 November)

Event Time Altitude Azimuth Distance (km) Brightness Sun altitude
Rises 12:41:14 0° 352° (N) 2,861 6.9 -20.7°
Reaches altitude 10° 12:43:27 10° 352° (N) 1,955 6.0 -20.3°
Maximum altitude 12:47:47 84° 265° (W) 612 3.4 -19.5°
Drops below altitude 10° 12:52:05 10° 176° (S) 1,948 6.1 -18.6°
Sets 12:54:18 0° 176° (S) 2,851 7.0 -18.2°
